User: anonymous
Location: Caltech
(34.1382°N, 118.1253°W)
Time: 20:19:06
(UTC-07:00)
Language:

Cosmos 2333 Rocket - Orbit

View from above orbital plane
View from above orbital plane
View from above satellite
View from above satellite

Ground track
Ground track

The orbit data is extracted from the following two-line orbital elements,

1 24298U 96051B   14112.84223028 -.00000028  00000-0  10738-4 0  4342
2 24298 070.8706 328.4451 0013397 099.3804 345.4464 14.12487551909251
Epoch (UTC): 22 April 2014 20:12:48
Eccentricity: 0.0013397
inclination: 70.8706°
perigee height: 841 km
apogee height: 860 km
right ascension of ascending node: 328.4451°
argument of perigee: 99.3804°
revolutions per day: 14.12487551
mean anomaly at epoch: 345.4464°
orbit number at epoch: 90925

The dashed part of the orbit path shows where the satellite is in the earth's shadow,  

DLR